TimeEST,TemperatureF,Dew PointF,Humidity,Sea Level PressureIn,VisibilityMPH,Wind Direction,Wind SpeedMPH,Gust SpeedMPH,PrecipitationIn,Events,Conditions,WindDirDegrees,DateUTC
12:53 AM,48.9,43.0,80,30.04,10.0,NW,3.5,-,N/A,,Clear,320,2013-02-16 05:53:00
1:53 AM,48.9,43.0,80,30.02,10.0,NNW,3.5,-,N/A,,Clear,330,2013-02-16 06:53:00
2:53 AM,48.9,44.1,83,30.01,10.0,NNW,4.6,-,N/A,,Clear,330,2013-02-16 07:53:00
3:53 AM,48.9,44.1,83,29.99,10.0,NNW,4.6,-,N/A,,Clear,330,2013-02-16 08:53:00
4:53 AM,50.0,44.1,80,29.99,10.0,NNW,8.1,-,N/A,,Clear,330,2013-02-16 09:53:00
5:53 AM,48.9,42.1,77,29.99,10.0,NNW,9.2,-,N/A,,Clear,340,2013-02-16 10:53:00
6:53 AM,48.2,41.0,76,30.01,10.0,North,8.1,-,N/A,,Clear,350,2013-02-16 11:53:00
7:53 AM,48.0,41.0,77,30.03,10.0,NNW,6.9,-,N/A,,Clear,340,2013-02-16 12:53:00
8:53 AM,50.0,39.9,68,30.06,10.0,NNW,9.2,-,N/A,,Clear,340,2013-02-16 13:53:00
9:53 AM,52.0,37.9,59,30.09,10.0,NNW,24.2,32.2,N/A,,Scattered Clouds,340,2013-02-16 14:53:00
10:53 AM,51.1,36.0,56,30.12,10.0,NNW,15.0,26.5,N/A,,Overcast,340,2013-02-16 15:53:00
11:53 AM,55.0,37.0,51,30.11,10.0,NW,15.0,-,N/A,,Partly Cloudy,310,2013-02-16 16:53:00
12:53 PM,57.9,30.9,36,30.08,10.0,NW,16.1,32.2,N/A,,Clear,310,2013-02-16 17:53:00
1:53 PM,59.0,34.0,39,30.05,10.0,NW,13.8,23.0,N/A,,Partly Cloudy,310,2013-02-16 18:53:00
2:53 PM,59.0,30.2,34,30.03,10.0,WNW,21.9,28.8,N/A,,Clear,290,2013-02-16 19:53:00
3:53 PM,57.0,28.0,33,30.03,10.0,WNW,21.9,31.1,N/A,,Clear,300,2013-02-16 20:53:00
4:53 PM,57.0,25.0,29,30.04,10.0,WNW,18.4,33.4,N/A,,Clear,300,2013-02-16 21:53:00
5:53 PM,52.0,21.9,31,30.06,10.0,NNW,13.8,25.3,N/A,,Partly Cloudy,330,2013-02-16 22:53:00
6:53 PM,48.9,21.9,35,30.10,10.0,NNW,16.1,21.9,N/A,,Clear,340,2013-02-16 23:53:00
7:53 PM,46.9,19.9,34,30.14,10.0,North,11.5,-,N/A,,Clear,350,2013-02-17 00:53:00
8:53 PM,44.1,21.0,40,30.18,10.0,NNW,9.2,-,N/A,,Clear,340,2013-02-17 01:53:00
9:53 PM,42.1,19.9,41,30.21,10.0,NNW,8.1,-,N/A,,Clear,340,2013-02-17 02:53:00
10:53 PM,42.1,18.0,38,30.23,10.0,NNW,8.1,-,N/A,,Clear,340,2013-02-17 03:53:00
11:53 PM,37.9,19.0,47,30.24,10.0,NNW,6.9,-,N/A,,Clear,340,2013-02-17 04:53:00